{"data":{"norad_id":59392,"epoch":"2026-09-21T18:22:43.799808Z","epoch_age_seconds":55750,"freshness":"FRESH","line1":"1 59392U 24062U   26264.76578472  .00000801  00000+0  34844-4 0  9993","line2":"2 59392  53.1600  61.9226 0001087  88.5297 271.5831 15.34391308139733","mean_motion":15.34391308,"eccentricity":0.0001087,"inclination_deg":53.16,"raan_deg":61.9226,"arg_perigee_deg":88.5297,"mean_anomaly_deg":271.5831,"bstar":3.4844e-5,"rev_number":13973,"period_min":93.848289708899,"perigee_km":461.98547264249,"apogee_km":463.47267692715,"semimajor_km":6840.8660747848,"source":"CELESTRAK","updated_at":"2026-09-22T09:00:48.911619Z"}}